Regional Weather Roundup
Issued by NWS

Home | Current Version | Previous Version | Graphics & Text | Print | Product List | Glossary On
Versions: 1 2 3 4 5 6 7 8 9 10 11 12 13 14 15 16 17 18 19 20 21 22 23 24 25 26 27 28 29 30 31 32 33 34 35 36 37 38 39 40 41 42 43 44 45 46 47 48 49 50
000
ASUS43 KOAX 071502
RWRNE

WEATHER ROUNDUP FOR NEBRASKA
NATIONAL WEATHER SERVICE OMAHA NE
1000 AM CDT TUE JUL 07 2015

NOTES: SATELLITE DATA IS BEING USED TO AUGMENT CLOUD COVER ABOVE
       12000 FEET.
       "FAIR" INDICATES FEW OR NO CLOUDS BELOW 12,000 FEET WITH NO
       SIGNIFICANT WEATHER AND/OR OBSTRUCTIONS TO VISIBILITY.

  * THESE STATIONS DO NOT REPORT WEATHER SUCH AS RAIN...SNOW OR FOG.

NEZ001>004-019>022-054>056-071600-
NEBRASKA PANHANDLE

CITY           SKY/WX    TMP DP  RH WIND       PRES   REMARKS
SCOTTSBLUFF    CLOUDY    66  55  67 SE10      30.20R HAZE
ALLIANCE       CLOUDY    63  55  75 S15       30.22R
CHADRON        CLOUDY    67  56  67 S14G22    30.16F
KIMBALL          N/A    N/A N/A N/A MISG        N/A
SIDNEY         CLOUDY    63  52  67 S17       30.25S HAZE
$$

NEZ057>060-069>072-079>082-071600-
SOUTHWEST NEBRASKA

CITY           SKY/WX    TMP DP  RH WIND       PRES   REMARKS
NORTH PLATTE   SUNNY     65  54  67 VRB3      30.24R
IMPERIAL       MOSUNNY   66  51  58 SE7       30.25S
LEXINGTON      SUNNY     65  55  69 E7        30.22F
MCCOOK         CLOUDY    64  56  75 SE6       30.23S HAZE
$$

NEZ005>010-023>029-035>040-094-071600-
NORTH CENTRAL NEBRASKA

CITY           SKY/WX    TMP DP  RH WIND       PRES   REMARKS
VALENTINE      SUNNY     66  59  78 SE6       30.20R
AINSWORTH      SUNNY     65  55  70 SE6       30.22S HAZE
BROKEN BOW     SUNNY     65  56  72 SE8       30.22S HAZE
ORD            MOSUNNY   63  54  72 E5        30.21R
$$

NEZ041-046>049-061>064-073>077-083>087-071600-
SOUTH CENTRAL NEBRASKA

CITY           SKY/WX    TMP DP  RH WIND       PRES   REMARKS
GRAND ISLAND   SUNNY     63  53  70 MISG      30.22R
AURORA         SUNNY     62  53  72 E9        30.20S
HASTINGS       SUNNY     63  52  67 NE10      30.21R
KEARNEY *      SUNNY     63  54  72 NE7       30.22S
$$

NEZ011>018-030>034-042>045-071600-
NORTHEAST NEBRASKA

CITY           SKY/WX    TMP DP  RH WIND       PRES   REMARKS
NORFOLK        SUNNY     65  49  56 NE9       30.21S
ALBION         SUNNY     63  51  64 NE9       30.21F
BLAIR          SUNNY     62  49  62 N10       30.17S
FREMONT        SUNNY     65  47  52 N7G17     30.19S
TEKAMAH        SUNNY     65  49  56 N17       30.18S
$$

NEZ050>053-065>068-078-088>093-071600-
SOUTHEAST NEBRASKA

CITY           SKY/WX    TMP DP  RH WIND       PRES   REMARKS
LINCOLN        SUNNY     65  49  56 N18G26    30.18R
OMAHA EPPLEY   MOSUNNY   64  48  56 N18       30.16S
BEATRICE       SUNNY     63  49  61 NE20G25   30.16R
FALLS CITY     SUNNY     65  51  60 N9G23     30.12R
NEBRASKA CITY  SUNNY     63  45  51 NE17      30.15R
PLATTSMOUTH    SUNNY     63  46  53 N14G20    30.16R
$$

NEZ044-045-051>053-067-071600-
OMAHA AREA

CITY           SKY/WX    TMP DP  RH WIND       PRES   REMARKS
OMAHA EPPLEY   MOSUNNY   64  48  56 N18       30.16S
BLAIR          SUNNY     62  49  62 N10       30.17S
FREMONT        SUNNY     65  47  52 N7G17     30.19S
MILLARD        SUNNY     64  48  57 MISG      30.17S
OFFUTT AFB     SUNNY     64  48  56 N15G23    30.15R
PLATTSMOUTH    SUNNY     63  46  53 N14G20    30.16R
WAHOO          FAIR      64  49  57 N15       30.18S
$$


USA.gov is the U.S. government's official web portal to all federal, state and local government web resources and services.